Regional Weather Roundup
Issued by NWS Memphis, TN

Home | Current Version | Previous Version | Text Only | Print | Product List | Glossary On
Versions: 1 2 3 4 5 6 7 8 9 10 11 12 13 14 15 16 17 18 19 20 21 22 23 24 25 26 27 28 29 30 31 32 33 34 35 36 37 38 39 40 41 42 43 44 45 46 47 48 49 50
000
ASUS44 KMEG 270310
RWRMEG
MEMPHIS CWA HOURLY WEATHER ROUNDUP
NATIONAL WEATHER SERVICE MEMPHIS TN
900 PM CST FRI DEC 26 2014

...WEST TENNESSEE...

CITY           SKY/WX    TMP DP  RH WIND       PRES   REMARKS
MEMPHIS INTL   CLOUDY    51  43  74 S10G20    30.14S
NWS MEMPHIS      N/A     51 N/A N/A MISG        N/A
JACKSON        PTCLDY    50  38  63 S8G16     30.17S
LEXINGTON      PTCLDY    46  37  71 S3        30.18S
SAVANNAH       PTCLDY    46  39  76 SE6       30.20R
DYERSBURG      PTCLDY    48  30  49 S5        30.18R
UNION CITY     CLEAR     41  37  87 CALM      30.16R
PARIS          CLEAR     43  36  75 SE8       30.17S
HUNTINGDON     PTCLDY    44  37  76 SE8       30.18S


...EASTERN ARKANSAS...

CITY           SKY/WX    TMP DP  RH WIND       PRES   REMARKS
JONESBORO      CLOUDY    50  44  80 S12       30.13R
WEST MEMPHIS   MOCLDY    50  45  83 SE10      30.13R
BATESVILLE     CLOUDY    52  46  82 SE6       30.09S
NEWPORT        CLOUDY    51  46  83 SE13      30.11F
WALNUT RIDGE   CLOUDY    50  41  71 S10       30.10F
BLYTHEVILLE    CLOUDY    49  42  77 S10       30.14S
SEARCY         LGT RAIN  51  50  96 S8        30.10S
STUTTGART      CLOUDY    52  48  87 SE12      30.10S
PINE BLUFF     LGT RAIN  52  50  93 SE12      30.09F FOG
MONTICELLO     CLOUDY    54  52  93 SE8       30.10S


...NORTH MISSISSIPPI...

CITY           SKY/WX    TMP DP  RH WIND       PRES   REMARKS
TUPELO         PTCLDY    49  41  74 MISG      30.21S
OXFORD         PTCLDY    48  43  81 SE8       30.19S
OLIVE BRANCH   MOCLDY    48  46  93 SE12      30.15F
TUNICA         MOCLDY    50  45  81 SE12      30.14F
CLARKSDALE     MOCLDY    50  48  93 SE9       30.14F
CORINTH        PTCLDY    48  41  76 SE6       30.19F
GRENADA        CLOUDY    52  46  82 CALM      30.17F
GREENWOOD      CLOUDY    55  47  74 SE9       30.15S
COLUMBUS       PTCLDY    49  43  80 SE6       30.22R
STARKVILLE     CLOUDY    52  45  76 SE7       30.21F
GOLDEN TRIANGL MOCLDY    52  43  71 SE10      30.20F


...SOUTHEAST MISSOURI...

CITY           SKY/WX    TMP DP  RH WIND       PRES   REMARKS
WEST PLAINS    LGT RAIN  45  43  93 S9        30.06S FOG
POPLAR BLUFF   CLOUDY    50  39  66 S6        30.12R
CAPE GIRARDEAU CLOUDY    49  41  74 SE10      30.13S


...NORTHWEST ALABAMA...

CITY           SKY/WX    TMP DP  RH WIND       PRES   REMARKS
MUSCLE SHOALS  PTCLDY    49  39  68 SE7       30.22S


...MIDDLE TENNESSEE...

CITY           SKY/WX    TMP DP  RH WIND       PRES   REMARKS
NASHVILLE      CLOUDY    47  38  71 SE7       30.22F
CLARKSVILLE    CLOUDY    47  38  71 S7        30.19R
COLUMBIA       PTCLDY   N/A N/A N/A CALM      30.20S


...WESTERN KENTUCKY...

CITY           SKY/WX    TMP DP  RH WIND       PRES   REMARKS
PADUCAH        CLOUDY    48  37  65 S7        30.16R
FORT CAMPBELL  CLOUDY    47  37  67 S6        30.18F


...CENTRAL ARKANSAS...

CITY           SKY/WX    TMP DP  RH WIND       PRES   REMARKS
LITTLE ROCK    LGT RAIN  52  48  87 SE9       30.08S FOG


SKY/WX REPORTED AS FAIR MEANS FEW OR NO CLOUDS BELOW
12 THOUSAND FEET.




USA.gov is the U.S. government's official web portal to all federal, state and local government web resources and services.